SCP
0 0 0 0 0 0 0 0 0 0 0 0 0 0 0 0 0 0 0 0 0 0 0 0 0 0 0 0 0 0 0 0 0 0 0 0 0 0 0 0 0 0 0
0 0 0 0 0 0 0 0 0 0 0 0 0 0 0 0 0 0 0 0 0 0 0 0 0 0 0 0 0 0 0 0 0 0 0 0 0 0 0 0 0 0 0
0 0 0 0 0 0 0 0 0 0 0 0 0 0 0 0 0 0 0 0 0 0 0 0 0 0 0 0 0 0 0 0 0 0 0 0 0 0 0 0 0 0 0
0 0 0 0 0 0 0 0 0 0 0 0 0 0 0 0 0 0 0 0 0 0 0 0 0 0 0 0 0 0 0 0 0 0 0 0 0 0 0 0 0 0 0
0 0 0 0 0 0 0 0 0 0 0 0 0 0 0 0 0 0 0 0 0 0 0 0 0 0 0 0 0 -0 0 0 0 0 0 0 0 0 0 0 0 0 0
0 0 0 0 0 0 0 0 0 0 0 0 0 0 0 0 0 -0 -0 0 0 0 0 0 0 0 0 0 0 0 -0 0 0 0 0 0 0 0 0 0 0 0 0
0 0 0 0 0 0 0 0 0 0 0 0 0 0 0 0 0 -0 -0 -0 0 0 0 0 0 0 0 0 0 0 0 0 0 0 0 0 0 0 0 0 0 0 0
0 0 0 0 0 0 0 0 0 0 0 0 0 0 0 0 0 0 0 0 -0 0 0 0 0 0 0 0 0 0 0 0 0 0 0 0 0 0 0 0 0 0 0
0 0 0 0 0 0 0 0 0 0 0 0 0 0 0 0 0 0 0 0 0 0 0 0 0 0 0 0 0 0 0 0 0 0 0 0 0 0 0 0 0 0 0
0 0 0 0 0 0 0 0 0 0 0 0 0 0 0 0 0 0 0 0 0 0 0 0 0 0 0 0 0 0 0 0 0 0 0 0 0 0 0 0 0 0 0
0 0 0 0 0 0 0 0 0 0 0 0 0 -0 0 0 0 0 0 0 0 0 0 0 0 0 0 0 0 0 0 0 0 0 0 0 0 0 0 0 0 0 0
0 0 0 0 0 0 0 0 0 0 0 0 -0 -0 -0 -0 -0 0 0 0 0 0 0 0 0 0 0 0 0 0 0 0 0 0 0 0 0 0 0 -0 0 0 0
0 0 0 0 0 0 0 0 0 0 0 0 -0 -0 -0 -0 -0 0 0 0 0 0 0 0 0 0 0 0 0 0 0 0 0 0 0 0 -0 0 0 -0 0 0 0
0 0 0 0 0 0 0 0 0 0 0 0 -0 -0 -0 0 0 -0 0 0 0 0 0 0 0 0 0 0 0 0 0 0 0 0 0 0 -0 -0 0 0 0 0 0
0 0 0 0 -0 -0 0 0 0 0 0 0 0 -0 -0 0 0 0 0 0 0 0 0 0 0 0 0 0 0 0 0 0 0 0 0 0 0 0 0 0 0 0 0
0 0 0 0 -0 -0 -0 0 -0 -0 0 -0 0 -0 -0 -0 -0 -0 0 0 0 0 0 0 0 0 0 0 0 0 0 0 0 0 0 0 0 -0 -0 -0 0 0 0
0 0 0 0 -0 -0 -0 -0 -0 -0 -0 0 0 -0 -0 -0 -0 -0 -0 -0 0 0 0 0 0 0 0 0 -0 -0 0 0 0 0 0 0 0 0 0 -0 -0 0 0
0 0 0 0 0 0 0 -0 0 -0 -0 -0 -0 0 -0 -0 -0 -0 -0 0 0 0 0 0 0 0 0 -0 -0 -0 0 -0 -0 -0 -0 0 0 0 0 0 0 0 0
0 0 0 0 0 0 0 -0 0 0 -0 0 -0 -0 0 0 -0 0 -0 0 0 0 0 0 -0 -0 -0 -0 -0 -0 0 -0 -0 -0 -0 0 0 0 0 0 0 0 0
0 0 0 0 0 0 0 0 0 0 0 0 -0 0 0 0 -0 -0 -0 -0 -0 0 0 0 0 0 0 -0 -0 -0 -0 -0 0 0 0 0 0 0 0 0 0 0 0
0 0 0 0 0 0 0 0 0 0 0 0 0 0 0 0 0 0 -0 -0 -0 -0 -0 -0 -0 0 0 0 -0 -0 0 -0 -0 0 0 -0 -0 -0 -0 -0 0 0 0
0 0 0 0 0 0 0 0 0 0 0 0 0 0 0 0 0 0 0 0 0 -0 0 -0 -0 -0 -0 -0 -0 -0 -0 -0 -0 -0 0 0 -0 -0 -0 0 0 0 0
0 0 0 0 0 0 0 0 0 0 0 0 0 0 0 0 0 0 0 0 0 0 0 0 0 0 0 0 -0 -0 -0 -0 -0 0 -0 -0 -0 -0 0 0 0 0 0
0 0 0 0 0 0 0 0 0 0 0 0 0 0 0 0 0 0 0 0 0 0 0 0 0 0 0 0 0 0 0 -0 -0 0 0 0 0 0 0 0 0 0 0
0 0 0 0 0 0 0 0 0 0 0 0 0 0 0 0 0 0 0 0 0 0 0 0 0 0 0 0 0 0 0 0 0 0 0 0 0 0 0 0 0 0 0
0 0 0 0 0 0 0 0 0 0 0 0 0 0 0 0 0 0 0 0 0 0 0 0 0 0 0 0 0 0 0 0 0 0 0 0 0 0 0 0 0 0 0
Wind_Speed_500mb
37 33 33 30 25 23 19 16 17 22 24 26 26 20 18 17 12 8 5 3 1 1 5 10 7 10 26 20 32 33 49 60 84 78 75 80 72 62 53 48 40 27 30
36 38 37 28 22 18 14 14 17 22 23 25 23 17 17 9 7 8 7 4 2 4 9 10 6 8 13 18 37 26 45 87 91 79 73 57 64 49 40 40 41 41 32
41 40 35 25 19 17 12 13 18 21 22 22 17 15 12 1 4 5 5 7 5 10 7 7 4 4 10 3 44 34 69 83 85 84 58 40 25 60 44 43 40 39 34
35 33 30 25 19 15 12 14 18 19 19 17 14 10 6 6 4 6 9 12 12 12 7 7 8 5 8 9 30 38 53 51 80 64 66 31 69 55 27 40 46 42 37
29 30 28 22 17 16 13 13 17 17 16 14 10 8 5 4 8 6 7 7 8 7 7 8 4 3 9 3 19 31 26 51 66 67 62 38 57 46 51 41 38 38 37
30 27 27 24 21 18 14 14 14 14 12 11 7 6 2 5 3 3 5 5 7 10 10 10 2 8 15 17 14 33 40 39 57 61 60 55 76 49 57 52 42 35 33
33 30 27 25 22 19 14 13 12 11 9 7 5 2 4 6 4 0 3 9 7 10 14 8 4 8 13 20 13 18 30 38 67 71 72 50 66 54 44 50 48 36 30
35 32 25 22 21 20 14 13 10 7 6 4 2 3 7 9 7 2 2 5 6 8 8 6 9 4 14 22 19 17 22 46 59 58 35 44 63 48 39 43 50 37 29
38 33 27 24 22 20 13 12 7 5 4 5 3 7 7 9 5 4 2 2 8 12 10 9 6 6 17 28 15 17 19 38 48 30 45 41 53 39 28 40 38 33 28
39 34 28 21 21 18 13 13 7 4 4 6 7 12 12 12 6 3 3 2 9 13 16 13 9 12 20 26 17 18 19 51 50 39 47 47 48 40 29 26 31 27 19
44 37 30 21 20 19 15 15 7 5 1 7 10 18 17 11 6 4 3 7 10 13 17 15 13 14 29 29 18 19 37 30 63 42 38 41 37 29 27 34 38 20 11
44 39 33 25 22 21 17 17 9 4 4 10 18 21 19 11 5 3 7 5 5 8 13 17 22 31 35 27 29 26 35 33 49 49 33 25 20 39 30 33 23 16 10
45 42 39 33 26 24 20 20 12 6 10 15 25 24 18 13 6 8 6 7 13 14 17 24 42 37 36 33 24 22 35 33 41 38 35 35 27 30 27 24 19 15 11
49 46 42 37 30 26 23 23 16 10 16 21 27 25 17 16 11 12 7 16 21 29 35 40 38 33 32 24 18 28 33 32 35 39 39 33 31 28 22 20 22 18 20
49 50 45 42 36 32 29 28 21 15 23 28 30 26 23 17 19 22 23 23 35 37 38 33 29 27 22 20 16 21 24 34 27 30 28 34 33 30 21 14 15 15 17
55 53 48 45 43 37 33 33 25 22 29 36 32 32 28 21 23 22 28 33 33 29 28 24 23 21 16 17 17 22 24 25 24 29 38 33 29 28 24 17 14 17 15
51 53 56 52 48 41 36 38 31 30 37 44 37 35 30 26 28 30 35 34 33 29 24 23 22 17 15 24 18 22 26 31 31 28 34 34 26 27 27 23 21 16 11
50 48 50 53 49 44 41 42 37 35 43 47 44 40 33 34 39 35 35 37 35 32 32 35 28 30 33 26 23 30 31 31 31 29 27 37 31 27 21 15 14 15 13
45 47 42 48 50 53 50 51 45 42 50 52 50 46 39 40 42 42 40 39 37 36 38 34 29 32 37 31 32 31 40 42 44 40 34 29 28 26 22 15 12 9 6
51 53 49 49 54 61 59 59 54 52 55 57 54 51 45 43 42 42 42 44 38 39 36 38 33 31 37 32 30 30 36 41 39 37 33 29 22 20 15 10 6 5 3
56 54 50 54 58 67 68 66 59 57 57 58 59 57 52 47 46 48 48 50 47 46 40 38 39 35 33 40 37 32 30 29 35 33 29 26 20 15 11 7 4 2 2
48 50 54 57 59 70 73 70 63 60 64 64 62 61 56 52 49 48 49 41 36 34 27 20 30 39 37 37 37 36 31 30 21 24 22 18 14 9 5 2 1 4 7
44 48 53 55 61 73 75 72 66 70 73 70 67 64 59 55 52 48 48 41 32 19 20 24 34 39 37 32 30 27 23 22 15 16 16 13 9 5 0 2 5 6 7
48 48 50 57 68 78 76 67 71 74 79 77 72 69 64 61 57 52 43 34 28 22 23 32 37 41 40 34 29 24 22 19 16 16 15 12 9 6 5 6 7 8 11
44 47 50 57 69 77 79 73 73 76 84 81 76 71 67 64 60 53 44 37 29 26 30 31 31 31 30 29 26 21 19 17 17 16 18 17 14 9 7 8 9 9 10
45 49 52 57 67 78 82 78 74 76 82 88 85 81 75 68 61 56 52 45 37 34 35 32 29 29 26 24 23 21 20 20 19 22 17 7 2 3 6 5 5 3 5
Wind_Direction_500mb
222 212 216 220 231 248 258 280 304 309 313 312 314 316 317 325 315 352 18 36 358 217 200 208 250 239 219 274 211 193 201 175 178 168 154 156 156 155 157 160 164 176 172
202 206 206 214 236 250 271 297 313 313 316 312 317 324 332 335 26 16 4 22 297 260 162 198 229 216 213 237 199 197 177 174 167 152 134 120 136 144 158 164 170 187 179
184 188 200 220 229 248 273 305 312 313 311 313 324 329 331 2 121 44 37 2 38 131 156 184 172 260 202 340 149 153 163 150 163 163 149 140 147 145 160 161 168 180 180
184 196 209 218 231 247 277 302 305 306 312 319 326 326 326 206 126 94 60 80 70 108 140 186 201 282 159 156 166 176 181 189 171 166 175 161 161 157 153 154 169 178 179
202 207 211 223 235 248 267 287 292 304 317 328 336 336 317 150 132 113 77 86 76 120 152 177 227 185 179 137 138 155 187 173 178 177 173 176 168 180 161 153 162 170 173
200 207 211 222 229 241 257 270 289 307 326 338 356 0 165 138 141 123 91 139 131 145 157 180 185 184 182 169 148 185 172 183 201 187 189 183 181 180 176 173 169 172 168
206 212 215 219 230 240 249 271 291 311 334 348 14 41 140 122 114 204 146 187 180 153 165 173 226 194 187 196 181 163 206 212 203 191 185 193 185 186 185 183 172 171 177
203 211 216 226 235 241 246 266 290 311 335 334 316 186 145 119 102 30 83 163 216 180 182 199 209 188 173 183 173 206 195 203 192 180 188 185 179 182 190 186 188 171 183
205 210 217 233 236 242 248 255 281 308 325 300 256 196 139 117 101 88 77 201 165 185 207 208 216 188 166 181 172 160 214 198 170 175 186 173 184 198 194 200 209 211 192
205 209 215 229 231 237 238 243 257 271 313 269 202 173 137 127 131 145 183 156 192 199 218 225 219 224 187 188 183 168 175 189 171 180 182 175 191 202 189 188 194 208 230
207 212 216 222 228 229 227 231 230 257 345 207 181 157 148 143 125 147 221 250 228 227 211 208 209 195 172 166 168 181 181 173 177 165 173 160 179 188 181 172 167 180 156
214 215 215 221 226 221 222 222 209 231 169 175 157 157 152 146 134 51 344 334 238 181 189 187 152 148 157 165 163 135 149 160 174 180 184 192 174 166 162 162 166 180 184
213 209 212 222 225 222 215 216 203 189 173 163 154 152 148 118 52 17 47 109 145 134 153 159 136 136 141 148 155 161 164 165 161 173 186 190 178 174 174 176 188 205 217
213 213 215 222 222 222 213 210 199 178 174 163 156 149 138 113 82 55 80 126 124 114 122 137 144 140 131 128 129 142 163 169 182 192 198 205 206 193 212 221 221 220 213
213 218 220 225 220 218 210 204 197 179 170 164 157 148 135 117 106 114 123 136 132 125 127 128 129 129 139 143 156 170 179 184 183 182 166 188 191 203 224 197 211 223 182
226 229 229 228 224 217 213 202 195 176 170 164 158 150 133 123 125 121 133 135 136 145 139 143 144 144 149 156 188 183 176 177 189 184 171 168 178 200 191 207 177 151 130
227 229 230 227 224 214 211 200 192 176 173 167 164 151 136 129 121 111 133 134 138 146 155 147 158 144 155 145 134 157 150 153 151 151 161 167 178 182 178 162 152 141 147
230 230 230 225 217 207 202 195 192 179 175 171 166 154 143 142 134 130 121 118 136 131 120 129 139 123 113 125 130 127 139 153 154 149 161 147 139 131 133 142 156 165 176
240 240 235 226 216 203 197 192 188 180 176 175 163 155 151 151 138 140 137 132 134 137 139 130 133 128 117 112 120 130 133 131 128 126 125 127 129 127 129 139 147 151 160
246 238 226 218 212 200 195 191 188 180 179 177 165 158 153 152 152 147 144 140 142 137 134 130 129 127 127 125 131 136 135 132 130 131 130 125 122 120 120 118 123 97 43
241 229 221 215 206 198 192 190 188 181 177 175 167 162 159 155 149 145 143 137 137 129 125 123 121 125 131 129 130 128 129 128 127 124 125 124 122 120 112 130 106 48 357
215 213 208 203 199 197 192 188 186 177 176 169 168 169 165 162 155 154 148 144 141 139 127 139 143 138 135 131 130 132 137 132 137 136 134 130 134 127 139 145 328 320 322
214 204 201 202 196 195 193 186 180 179 175 170 173 174 174 171 166 168 160 157 152 145 152 164 160 154 152 156 153 150 149 139 151 141 137 132 121 113 116 330 337 340 346
207 203 202 201 193 192 191 188 183 180 179 174 176 176 178 176 174 173 174 179 185 191 175 168 166 161 161 163 161 161 157 154 150 143 139 139 141 138 110 86 64 34 14
218 214 209 201 195 190 188 185 187 183 182 179 177 178 179 181 178 179 181 185 192 194 180 171 169 169 165 163 160 161 157 154 150 146 132 115 99 73 41 1 346 353 339
231 222 212 204 198 193 188 186 189 188 187 185 182 183 182 183 187 188 185 185 190 181 169 172 173 175 176 174 169 167 163 154 145 137 117 80 63 355 348 345 344 10 24
Wind_Speed_850mb
37 33 33 30 25 23 19 16 17 22 24 26 26 20 18 17 12 8 5 3 1 1 5 10 7 10 26 20 32 33 49 60 84 78 75 80 72 62 53 48 40 27 30
36 38 37 28 22 18 14 14 17 22 23 25 23 17 17 9 7 8 7 4 2 4 9 10 6 8 13 18 37 26 45 87 91 79 73 57 64 49 40 40 41 41 32
41 40 35 25 19 17 12 13 18 21 22 22 17 15 12 1 4 5 5 7 5 10 7 7 4 4 10 3 44 34 69 83 85 84 58 40 25 60 44 43 40 39 34
35 33 30 25 19 15 12 14 18 19 19 17 14 10 6 6 4 6 9 12 12 12 7 7 8 5 8 9 30 38 53 51 80 64 66 31 69 55 27 40 46 42 37
29 30 28 22 17 16 13 13 17 17 16 14 10 8 5 4 8 6 7 7 8 7 7 8 4 3 9 3 19 31 26 51 66 67 62 38 57 46 51 41 38 38 37
30 27 27 24 21 18 14 14 14 14 12 11 7 6 2 5 3 3 5 5 7 10 10 10 2 8 15 17 14 33 40 39 57 61 60 55 76 49 57 52 42 35 33
33 30 27 25 22 19 14 13 12 11 9 7 5 2 4 6 4 0 3 9 7 10 14 8 4 8 13 20 13 18 30 38 67 71 72 50 66 54 44 50 48 36 30
35 32 25 22 21 20 14 13 10 7 6 4 2 3 7 9 7 2 2 5 6 8 8 6 9 4 14 22 19 17 22 46 59 58 35 44 63 48 39 43 50 37 29
38 33 27 24 22 20 13 12 7 5 4 5 3 7 7 9 5 4 2 2 8 12 10 9 6 6 17 28 15 17 19 38 48 30 45 41 53 39 28 40 38 33 28
39 34 28 21 21 18 13 13 7 4 4 6 7 12 12 12 6 3 3 2 9 13 16 13 9 12 20 26 17 18 19 51 50 39 47 47 48 40 29 26 31 27 19
44 37 30 21 20 19 15 15 7 5 1 7 10 18 17 11 6 4 3 7 10 13 17 15 13 14 29 29 18 19 37 30 63 42 38 41 37 29 27 34 38 20 11
44 39 33 25 22 21 17 17 9 4 4 10 18 21 19 11 5 3 7 5 5 8 13 17 22 31 35 27 29 26 35 33 49 49 33 25 20 39 30 33 23 16 10
45 42 39 33 26 24 20 20 12 6 10 15 25 24 18 13 6 8 6 7 13 14 17 24 42 37 36 33 24 22 35 33 41 38 35 35 27 30 27 24 19 15 11
49 46 42 37 30 26 23 23 16 10 16 21 27 25 17 16 11 12 7 16 21 29 35 40 38 33 32 24 18 28 33 32 35 39 39 33 31 28 22 20 22 18 20
49 50 45 42 36 32 29 28 21 15 23 28 30 26 23 17 19 22 23 23 35 37 38 33 29 27 22 20 16 21 24 34 27 30 28 34 33 30 21 14 15 15 17
55 53 48 45 43 37 33 33 25 22 29 36 32 32 28 21 23 22 28 33 33 29 28 24 23 21 16 17 17 22 24 25 24 29 38 33 29 28 24 17 14 17 15
51 53 56 52 48 41 36 38 31 30 37 44 37 35 30 26 28 30 35 34 33 29 24 23 22 17 15 24 18 22 26 31 31 28 34 34 26 27 27 23 21 16 11
50 48 50 53 49 44 41 42 37 35 43 47 44 40 33 34 39 35 35 37 35 32 32 35 28 30 33 26 23 30 31 31 31 29 27 37 31 27 21 15 14 15 13
45 47 42 48 50 53 50 51 45 42 50 52 50 46 39 40 42 42 40 39 37 36 38 34 29 32 37 31 32 31 40 42 44 40 34 29 28 26 22 15 12 9 6
51 53 49 49 54 61 59 59 54 52 55 57 54 51 45 43 42 42 42 44 38 39 36 38 33 31 37 32 30 30 36 41 39 37 33 29 22 20 15 10 6 5 3
56 54 50 54 58 67 68 66 59 57 57 58 59 57 52 47 46 48 48 50 47 46 40 38 39 35 33 40 37 32 30 29 35 33 29 26 20 15 11 7 4 2 2
48 50 54 57 59 70 73 70 63 60 64 64 62 61 56 52 49 48 49 41 36 34 27 20 30 39 37 37 37 36 31 30 21 24 22 18 14 9 5 2 1 4 7
44 48 53 55 61 73 75 72 66 70 73 70 67 64 59 55 52 48 48 41 32 19 20 24 34 39 37 32 30 27 23 22 15 16 16 13 9 5 0 2 5 6 7
48 48 50 57 68 78 76 67 71 74 79 77 72 69 64 61 57 52 43 34 28 22 23 32 37 41 40 34 29 24 22 19 16 16 15 12 9 6 5 6 7 8 11
44 47 50 57 69 77 79 73 73 76 84 81 76 71 67 64 60 53 44 37 29 26 30 31 31 31 30 29 26 21 19 17 17 16 18 17 14 9 7 8 9 9 10
45 49 52 57 67 78 82 78 74 76 82 88 85 81 75 68 61 56 52 45 37 34 35 32 29 29 26 24 23 21 20 20 19 22 17 7 2 3 6 5 5 3 5
Wind_Direction_850mb
222 212 216 220 231 248 258 280 304 309 313 312 314 316 317 325 315 352 18 36 358 217 200 208 250 239 219 274 211 193 201 175 178 168 154 156 156 155 157 160 164 176 172
202 206 206 214 236 250 271 297 313 313 316 312 317 324 332 335 26 16 4 22 297 260 162 198 229 216 213 237 199 197 177 174 167 152 134 120 136 144 158 164 170 187 179
184 188 200 220 229 248 273 305 312 313 311 313 324 329 331 2 121 44 37 2 38 131 156 184 172 260 202 340 149 153 163 150 163 163 149 140 147 145 160 161 168 180 180
184 196 209 218 231 247 277 302 305 306 312 319 326 326 326 206 126 94 60 80 70 108 140 186 201 282 159 156 166 176 181 189 171 166 175 161 161 157 153 154 169 178 179
202 207 211 223 235 248 267 287 292 304 317 328 336 336 317 150 132 113 77 86 76 120 152 177 227 185 179 137 138 155 187 173 178 177 173 176 168 180 161 153 162 170 173
200 207 211 222 229 241 257 270 289 307 326 338 356 0 165 138 141 123 91 139 131 145 157 180 185 184 182 169 148 185 172 183 201 187 189 183 181 180 176 173 169 172 168
206 212 215 219 230 240 249 271 291 311 334 348 14 41 140 122 114 204 146 187 180 153 165 173 226 194 187 196 181 163 206 212 203 191 185 193 185 186 185 183 172 171 177
203 211 216 226 235 241 246 266 290 311 335 334 316 186 145 119 102 30 83 163 216 180 182 199 209 188 173 183 173 206 195 203 192 180 188 185 179 182 190 186 188 171 183
205 210 217 233 236 242 248 255 281 308 325 300 256 196 139 117 101 88 77 201 165 185 207 208 216 188 166 181 172 160 214 198 170 175 186 173 184 198 194 200 209 211 192
205 209 215 229 231 237 238 243 257 271 313 269 202 173 137 127 131 145 183 156 192 199 218 225 219 224 187 188 183 168 175 189 171 180 182 175 191 202 189 188 194 208 230
207 212 216 222 228 229 227 231 230 257 345 207 181 157 148 143 125 147 221 250 228 227 211 208 209 195 172 166 168 181 181 173 177 165 173 160 179 188 181 172 167 180 156
214 215 215 221 226 221 222 222 209 231 169 175 157 157 152 146 134 51 344 334 238 181 189 187 152 148 157 165 163 135 149 160 174 180 184 192 174 166 162 162 166 180 184
213 209 212 222 225 222 215 216 203 189 173 163 154 152 148 118 52 17 47 109 145 134 153 159 136 136 141 148 155 161 164 165 161 173 186 190 178 174 174 176 188 205 217
213 213 215 222 222 222 213 210 199 178 174 163 156 149 138 113 82 55 80 126 124 114 122 137 144 140 131 128 129 142 163 169 182 192 198 205 206 193 212 221 221 220 213
213 218 220 225 220 218 210 204 197 179 170 164 157 148 135 117 106 114 123 136 132 125 127 128 129 129 139 143 156 170 179 184 183 182 166 188 191 203 224 197 211 223 182
226 229 229 228 224 217 213 202 195 176 170 164 158 150 133 123 125 121 133 135 136 145 139 143 144 144 149 156 188 183 176 177 189 184 171 168 178 200 191 207 177 151 130
227 229 230 227 224 214 211 200 192 176 173 167 164 151 136 129 121 111 133 134 138 146 155 147 158 144 155 145 134 157 150 153 151 151 161 167 178 182 178 162 152 141 147
230 230 230 225 217 207 202 195 192 179 175 171 166 154 143 142 134 130 121 118 136 131 120 129 139 123 113 125 130 127 139 153 154 149 161 147 139 131 133 142 156 165 176
240 240 235 226 216 203 197 192 188 180 176 175 163 155 151 151 138 140 137 132 134 137 139 130 133 128 117 112 120 130 133 131 128 126 125 127 129 127 129 139 147 151 160
246 238 226 218 212 200 195 191 188 180 179 177 165 158 153 152 152 147 144 140 142 137 134 130 129 127 127 125 131 136 135 132 130 131 130 125 122 120 120 118 123 97 43
241 229 221 215 206 198 192 190 188 181 177 175 167 162 159 155 149 145 143 137 137 129 125 123 121 125 131 129 130 128 129 128 127 124 125 124 122 120 112 130 106 48 357
215 213 208 203 199 197 192 188 186 177 176 169 168 169 165 162 155 154 148 144 141 139 127 139 143 138 135 131 130 132 137 132 137 136 134 130 134 127 139 145 328 320 322
214 204 201 202 196 195 193 186 180 179 175 170 173 174 174 171 166 168 160 157 152 145 152 164 160 154 152 156 153 150 149 139 151 141 137 132 121 113 116 330 337 340 346
207 203 202 201 193 192 191 188 183 180 179 174 176 176 178 176 174 173 174 179 185 191 175 168 166 161 161 163 161 161 157 154 150 143 139 139 141 138 110 86 64 34 14
218 214 209 201 195 190 188 185 187 183 182 179 177 178 179 181 178 179 181 185 192 194 180 171 169 169 165 163 160 161 157 154 150 146 132 115 99 73 41 1 346 353 339
231 222 212 204 198 193 188 186 189 188 187 185 182 183 182 183 187 188 185 185 190 181 169 172 173 175 176 174 169 167 163 154 145 137 117 80 63 355 348 345 344 10 24